User: anonymous   Login
Location: Hawaiian Village Mobile Home Park
(32.8359°N, 116.9792°W)
Time: 14:06:28
(UTC+00:00)
Language:

ADEOS - Orbit

View from above orbital plane
View from above orbital plane
View from above satellite
View from above satellite

Ground track
Ground track

The orbit data is extracted from the following two-line orbital elements,

1 24277U 96046A   21290.91511310  .00000006  00000-0  20572-4 0  9998
2 24277  98.9243 282.7504 0002003  57.9592 302.1783 14.29476097312255
Epoch (UTC): 17 October 2021 21:57:45
Eccentricity: 0.0002003
inclination: 98.9243°
perigee height: 792 km
apogee height: 795 km
right ascension of ascending node: 282.7504°
argument of perigee: 57.9592°
revolutions per day: 14.29476097
mean anomaly at epoch: 302.1783°
orbit number at epoch: 31225

The dashed part of the orbit path shows where the satellite is in the earth's shadow,  

DLR